This demonstration page uses our WeatherBlox Daily Observations layout. Learn more.

39.01783, -85.05884

Hourly Observations for January 30, 2019

Temp ( °F °C ) Dew Point ( °F °C ) Humidity (%) Winds ( mph kmh ) Pressure ( in mb ) Visibility ( mi km ) Precip ( " mm )
12:38 am 00:38 Mostly Cloudy with Scattered Snow Showers 12 -11.1 6 -14.4 77 77 WNW 22 35 30.09 1019 0.75 1.207008 0.01 0.254
12:52 am 00:52 Cloudy with Light Snow 11 -11.7 6 -14.4 81 81 WNW 16 26 30.03 1017 1.5 2.414016 0.01 0.254
1:20 am 01:20 Cloudy with Light Snow 11 -11.7 4 -15.6 73 73 WNW 13 20 30.09 1019 1.5 2.414016 0.001 0.001
1:52 am 01:52 Windy with Snow Likely 11 -11.7 0 -17.8 61 61 WNW 22 35 30.03 1017 4 6.437376 0.001 0.001
2:52 am 02:52 Cloudy with Light Snow 8 -13.3 1 -17.2 73 73 WNW 16 26 30.03 1017 4 6.437376 0.001 0.001
3:52 am 03:52 Mostly Cloudy 5 -15 -7 -21.7 57 57 W 20 31 30.06 1018 10 16.09344 0.001 0.001
4:52 am 04:52 Clear 3 -16.1 -10 -23.3 54 54 W 14 22 30.03 1017 10 16.09344 0 0
5:52 am 05:52 Mostly Clear 2 -16.7 -11 -23.9 54 54 W 13 20 30.06 1018 10 16.09344 0 0
6:52 am 06:52 Clear 2 -16.7 -11 -23.9 54 54 W 14 22 30.06 1018 10 16.09344 0 0
7:52 am 07:52 Mostly Cloudy 2 -16.7 -9 -22.8 59 59 WSW 14 22 30.12 1020 7 11.265408 0 0
8:13 am 08:13 Windy with Snow Likely 3 -16.1 -6 -21.1 66 66 W 20 31 30.21 1023 1 1.609344 0.001 0.001
8:15 am 08:15 Cloudy with Snow 3 -16.1 -5 -20.6 69 69 WNW 23 37 30.24 1024 0.75 1.207008 0.001 0.001
8:17 am 08:17 Cloudy with Snow 2 -16.7 -5 -20.6 72 72 WNW 30 48 30.24 1024 0.5 0.804672 0.001 0.001
8:19 am 08:19 Cloudy with Snow 2 -16.7 -4 -20 76 76 WNW 26 43 30.24 1024 0.25 0.402336 0.001 0.001
8:28 am 08:28 Windy with Snow Likely 0 -17.8 -6 -21.1 76 76 WNW 28 44 30.24 1024 2 3.218688 0.001 0.001
9:52 am 09:52 Mostly Cloudy -2 -18.9 -14 -25.6 56 56 WNW 25 41 30.27 1025 8 12.874752 0.001 0.001
10:04 am 10:04 Mostly Cloudy -2 -18.9 -15 -26.1 53 53 WNW 23 37 30.36 1028 10 16.09344 0 0
10:52 am 10:52 Mostly Sunny -2 -18.9 -17 -27.2 48 48 WNW 21 33 30.3 1026 10 16.09344 0 0
11:52 am 11:52 Mostly Sunny -1 -18.3 -18 -27.8 43 43 W 22 35 30.33 1027 8 12.874752 0 0
12:52 pm 12:52 Mostly Sunny 0 -17.8 -17 -27.2 44 44 W 15 24 30.36 1028 10 16.09344 0 0
1:52 pm 13:52 Sunny 0 -17.8 -16 -26.7 46 46 SW 14 22 30.36 1028 10 16.09344 0 0
2:52 pm 14:52 Sunny 2 -16.7 -17 -27.2 40 40 W 9 15 30.36 1028 10 16.09344 0 0
3:52 pm 15:52 Sunny 3 -16.1 -16 -26.7 40 40 WSW 7 11 30.36 1028 10 16.09344 0 0
4:52 pm 16:52 Sunny 3 -16.1 -15 -26.1 42 42 WSW 7 11 30.36 1028 10 16.09344 0 0
5:52 pm 17:52 Mostly Sunny 2 -16.7 -15 -26.1 44 44 WSW 8 13 30.36 1028 10 16.09344 0 0
6:52 pm 18:52 Mostly Clear 1 -17.2 -16 -26.7 44 44 WSW 6 9 30.36 1028 10 16.09344 0 0
7:52 pm 19:52 Partly Cloudy -1 -18.3 -14 -25.6 53 53 W 6 9 30.39 1029 10 16.09344 0 0
8:52 pm 20:52 Partly Cloudy -1 -18.3 -13 -25 56 56 W 5 7 30.39 1029 10 16.09344 0 0
9:52 pm 21:52 Mostly Clear 0 -17.8 -13 -25 54 54 WSW 5 7 30.39 1029 10 16.09344 0 0
10:52 pm 22:52 Clear -1 -18.3 -13 -25 56 56 W 7 11 30.42 1030 10 16.09344 0 0
11:52 pm 23:52 Clear -1 -18.3 -12 -24.4 59 59 WNW 8 13 30.42 1030 10 16.09344 0 0

Powered by AerisWeather